| time (UTC) | temp F | wind direction | speed knots | gust knots | rain 1hr in | rain 24hr in | rain mn in | humidity % | barometer mb |
| 20260906090003 | 80 | 304 | 2.6 | 6.1 | 0.00 | 0.01 | 0.01 | 58 | 1024.8 |
| 20260906085424 | 80 | 321 | 2.6 | 6.1 | 0.00 | 0.01 | 0.01 | 60 | 1024.9 |
| 20260906084503 | 79 | 314 | 3.5 | 6.1 | 0.00 | 0.01 | 0.01 | 59 | 1024.9 |
| 20260906083604 | 80 | 334 | 1.7 | 6.1 | 0.00 | 0.01 | 0.01 | 58 | 1024.8 |
| 20260906082703 | 79 | 318 | 2.6 | 6.1 | 0.00 | 0.01 | 0.01 | 58 | 1024.8 |
| 20260906081804 | 81 | 331 | 1.7 | 5.2 | 0.00 | 0.01 | 0.01 | 56 | 1024.7 |
| 20260906080903 | 79 | 324 | 2.6 | 7.8 | 0.00 | 0.01 | 0.01 | 57 | 1024.5 |
| 20260906080003 | 79 | 307 | 1.7 | 5.2 | 0.00 | 0.01 | 0.01 | 56 | 1024.6 |
| 20260906075403 | 79 | 337 | 1.7 | 4.3 | 0.00 | 0.01 | 0.01 | 57 | 1024.4 |
| 20260906074503 | 78 | 324 | 2.6 | 6.1 | 0.00 | 0.01 | 0.01 | 61 | 1024.4 |
| 20260906073603 | 78 | 308 | 2.6 | 7.0 | 0.00 | 0.01 | 0.01 | 61 | 1024.2 |
| 20260906072703 | 79 | 327 | 2.6 | 6.1 | 0.00 | 0.01 | 0.01 | 60 | 1024.2 |
| 20260906071803 | 80 | 337 | 1.7 | 3.5 | 0.00 | 0.01 | 0.01 | 58 | 1024.2 |
| 20260906070903 | 80 | 349 | 0.9 | 3.5 | 0.00 | 0.01 | 0.01 | 59 | 1024.1 |
| 20260906070003 | 80 | 360 | 0.9 | 3.5 | 0.00 | 0.01 | 0.01 | 62 | 1024.1 |
| 20260906065404 | 80 | 331 | 0.9 | 3.5 | 0.00 | 0.01 | 0.01 | 64 | 1024.1 |
| 20260906064524 | 78 | 344 | 0.9 | 3.5 | 0.00 | 0.01 | 0.01 | 70 | 1024.1 |
| 20260906063603 | 79 | 354 | 0.9 | 1.7 | 0.00 | 0.01 | 0.01 | 72 | 1024.1 |
| 20260906062703 | 78 | 357 | 0.9 | 2.6 | 0.00 | 0.01 | 0.01 | 75 | 1024.1 |
| 20260906061803 | 76 | 352 | 0.9 | 4.3 | 0.00 | 0.01 | 0.01 | 79 | 1023.7 |
| 20260906060904 | 76 | 355 | 0.9 | 2.6 | 0.00 | 0.01 | 0.01 | 80 | 1023.8 |
| 20260906060003 | 75 | 357 | 0.9 | 2.6 | 0.00 | 0.01 | 0.01 | 81 | 1023.7 |
| 20260906055403 | 75 | 6 | 0.9 | 1.7 | 0.00 | 0.01 | 0.01 | 80 | 1023.6 |
| 20260906054503 | 74 | 7 | 0.9 | 1.7 | 0.00 | 0.01 | 0.01 | 80 | 1023.7 |
| 20260906053626 | 74 | 12 | 0.9 | 2.6 | 0.00 | 0.01 | 0.01 | 82 | 1023.4 |
| 20260906052705 | 72 | 22 | 0.9 | 1.7 | 0.00 | 0.01 | 0.01 | 85 | 1023.5 |
| 20260906051825 | 71 | 29 | 1.7 | 2.6 | 0.00 | 0.01 | 0.01 | 85 | 1023.5 |
| 20260906050904 | 72 | 24 | 1.7 | 3.5 | 0.00 | 0.01 | 0.01 | 84 | 1023.5 |
| 20260906050026 | 72 | 23 | 1.7 | 2.6 | 0.00 | 0.01 | 0.01 | 85 | 1023.4 |
| 20260906045405 | 72 | 23 | 1.7 | 3.5 | 0.00 | 0.01 | 0.01 | 86 | 1023.4 |
| 20260906044525 | 71 | 26 | 1.7 | 3.5 | 0.00 | 0.01 | 0.01 | 86 | 1023.4 |
| 20260906043604 | 70 | 32 | 1.7 | 2.6 | 0.00 | 0.01 | 0.01 | 90 | 1023.2 |
| 20260906042705 | 69 | 52 | 1.7 | 2.6 | 0.00 | 0.01 | 0.01 | 90 | 1023.3 |
| 20260906041804 | 70 | 36 | 0.9 | 1.7 | 0.00 | 0.01 | 0.01 | 90 | 1023.2 |
| 20260906040904 | 70 | 36 | 0.9 | 2.6 | 0.00 | 0.01 | 0.01 | 89 | 1023.3 |
| 20260906040005 | 70 | 27 | 0.9 | 2.6 | 0.00 | 0.01 | 0.01 | 89 | 1023.2 |
| 20260906035405 | 71 | 25 | 1.7 | 2.6 | 0.00 | 0.01 | 0.01 | 88 | 1023.1 |
| 20260906034504 | 71 | 31 | 0.9 | 2.6 | 0.00 | 0.01 | 0.01 | 88 | 1023.0 |
| 20260906033605 | 72 | 22 | 1.7 | 2.6 | 0.00 | 0.01 | 0.01 | 85 | 1023.1 |
| 20260906032704 | 72 | 20 | 1.7 | 2.6 | 0.00 | 0.01 | 0.01 | 86 | 1023.1 |
| 20260906031804 | 72 | 25 | 1.7 | 2.6 | 0.00 | 0.01 | 0.01 | 87 | 1022.9 |
| 20260906030904 | 71 | 38 | 1.7 | 2.6 | 0.00 | 0.01 | 0.01 | 89 | 1023.1 |
| 20260906030005 | 71 | 29 | 1.7 | 3.5 | 0.00 | 0.01 | 0.01 | 89 | 1023.2 |
| 20260906025404 | 71 | 33 | 1.7 | 3.5 | 0.00 | 0.01 | 0.01 | 90 | 1023.3 |
| 20260906024505 | 71 | 22 | 1.7 | 2.6 | 0.00 | 0.01 | 0.01 | 90 | 1023.4 |
| 20260906023605 | 71 | 29 | 0.9 | 2.6 | 0.00 | 0.01 | 0.01 | 91 | 1023.3 |
| 20260906022704 | 71 | 34 | 0.9 | 2.6 | 0.00 | 0.01 | 0.01 | 93 | 1023.2 |
| 20260906021804 | 71 | 26 | 0.9 | 2.6 | 0.00 | 0.01 | 0.01 | 93 | 1023.3 |
| 20260906020905 | 71 | 36 | 0.9 | 3.5 | 0.00 | 0.01 | 0.01 | 93 | 1023.1 |
| 20260906020004 | 71 | 22 | 1.7 | 3.5 | 0.00 | 0.01 | 0.01 | 94 | 1023.3 |
| 20260906015404 | 71 | 20 | 1.7 | 3.5 | 0.00 | 0.01 | 0.01 | 94 | 1023.3 |
| 20260906014505 | 71 | 27 | 1.7 | 3.5 | 0.00 | 0.01 | 0.01 | 93 | 1023.3 |
| 20260906013605 | 71 | 12 | 1.7 | 2.6 | 0.00 | 0.01 | 0.01 | 93 | 1023.4 |
| 20260906012704 | 71 | 34 | 0.9 | 2.6 | 0.00 | 0.01 | 0.01 | 93 | 1023.3 |
| 20260906011825 | 70 | 15 | 1.7 | 3.5 | 0.00 | 0.01 | 0.01 | 92 | 1023.4 |
| 20260906010904 | 71 | 9 | 1.7 | 3.5 | 0.00 | 0.01 | 0.01 | 92 | 1023.5 |
| 20260906010004 | 71 | 11 | 0.9 | 3.5 | 0.00 | 0.01 | 0.01 | 92 | 1023.3 |
| 20260906005404 | 71 | 10 | 0.9 | 2.6 | 0.00 | 0.01 | 0.01 | 92 | 1023.3 |
| 20260906004526 | 71 | 25 | 0.9 | 2.6 | 0.00 | 0.01 | 0.01 | 91 | 1023.4 |
| 20260906003604 | 71 | 23 | 0.9 | 1.7 | 0.00 | 0.01 | 0.01 | 91 | 1023.2 |
| 20260906002704 | 72 | 23 | 1.7 | 1.7 | 0.00 | 0.01 | 0.01 | 91 | 1023.4 |
| 20260906001804 | 72 | 24 | 0.9 | 1.7 | 0.00 | 0.01 | 0.01 | 92 | 1023.4 |
| 20260906000905 | 71 | 26 | 0.9 | 1.7 | 0.00 | 0.01 | 0.01 | 91 | 1023.6 |
| 20260906000025 | 72 | 27 | 0.9 | 2.6 | 0.00 | 0.01 | 0.01 | 91 | 1023.6 |
| 20260905235405 | 72 | 23 | 1.7 | 2.6 | 0.00 | 0.01 | 0.01 | 90 | 1023.7 |
| 20260905234504 | 72 | 30 | 1.7 | 2.6 | 0.00 | 0.01 | 0.01 | 90 | 1023.7 |
| 20260905233604 | 71 | 32 | 0.9 | 1.7 | 0.00 | 0.00 | 0.00 | 88 | 1023.7 |
| 20260905232725 | 71 | 42 | 0.9 | 1.7 | 0.00 | 0.00 | 0.00 | 87 | 1023.7 |
| 20260905231804 | 70 | 36 | 0.9 | 1.7 | 0.00 | 0.00 | 0.00 | 85 | 1023.8 |
| 20260905230904 | 70 | 40 | 0.9 | 1.7 | 0.00 | 0.00 | 0.00 | 84 | 1023.6 |
| 20260905230005 | 71 | 37 | 0.9 | 0.9 | 0.00 | 0.00 | 0.00 | 84 | 1023.7 |
| 20260905225405 | 71 | 36 | 0.9 | 0.9 | 0.00 | 0.00 | 0.00 | 84 | 1023.6 |
| 20260905224504 | 71 | 29 | 0.9 | 1.7 | 0.00 | 0.00 | 0.00 | 82 | 1023.7 |
| 20260905223604 | 71 | 16 | 0.9 | 1.7 | 0.00 | 0.00 | 0.00 | 83 | 1024.1 |
| 20260905222704 | 71 | 351 | 1.7 | 3.5 | 0.00 | 0.00 | 0.00 | 83 | 1023.9 |
| 20260905221805 | 72 | 340 | 1.7 | 3.5 | 0.00 | 0.00 | 0.00 | 81 | 1023.6 |
| 20260905220904 | 71 | 359 | 0.9 | 3.5 | 0.00 | 0.00 | 0.00 | 80 | 1023.6 |
| 20260905220004 | 71 | 33 | 0.9 | 1.7 | 0.00 | 0.00 | 0.00 | 79 | 1023.7 |
| 20260905215425 | 71 | 34 | 0.9 | 1.7 | 0.00 | 0.00 | 0.00 | 78 | 1023.6 |
| 20260905214504 | 71 | 47 | 0.9 | 1.7 | 0.00 | 0.00 | 0.00 | 77 | 1023.7 |
| 20260905213604 | 71 | 31 | 0.9 | 1.7 | 0.00 | 0.00 | 0.00 | 76 | 1023.7 |
| 20260905212705 | 71 | 38 | 0.9 | 2.6 | 0.00 | 0.00 | 0.00 | 76 | 1023.5 |
| 20260905211804 | 72 | 33 | 1.7 | 1.7 | 0.00 | 0.00 | 0.00 | 75 | 1023.5 |
| 20260905210904 | 72 | 18 | 0.9 | 1.7 | 0.00 | 0.00 | 0.00 | 74 | 1023.4 |
| 20260905210004 | 73 | 19 | 0.9 | 1.7 | 0.00 | 0.00 | 0.00 | 73 | 1023.5 |
| 20260905205404 | 73 | 20 | 0.9 | 1.7 | 0.00 | 0.00 | 0.00 | 72 | 1023.5 |
| 20260905204504 | 73 | 13 | 0.9 | 1.7 | 0.00 | 0.00 | 0.00 | 73 | 1023.7 |
| 20260905203604 | 73 | 25 | 0.9 | 2.6 | 0.00 | 0.00 | 0.00 | 72 | 1023.6 |
| 20260905202705 | 73 | 11 | 0.9 | 1.7 | 0.00 | 0.00 | 0.00 | 73 | 1023.6 |
| 20260905201804 | 73 | 28 | 0.9 | 2.6 | 0.00 | 0.00 | 0.00 | 73 | 1023.5 |
| 20260905200905 | 73 | 12 | 1.7 | 3.5 | 0.00 | 0.00 | 0.00 | 74 | 1023.5 |
| 20260905200004 | 73 | 3 | 0.9 | 2.6 | 0.00 | 0.00 | 0.00 | 74 | 1023.6 |
| 20260905195404 | 72 | 2 | 0.9 | 2.6 | 0.00 | 0.00 | 0.00 | 74 | 1023.5 |
| 20260905194525 | 73 | 350 | 1.7 | 4.3 | 0.00 | 0.00 | 0.00 | 75 | 1023.6 |
| 20260905193604 | 72 | 2 | 0.9 | 2.6 | 0.00 | 0.00 | 0.00 | 75 | 1023.6 |
| 20260905192704 | 73 | 8 | 0.9 | 2.6 | 0.00 | 0.00 | 0.00 | 74 | 1023.6 |
| 20260905191825 | 73 | 1 | 0.9 | 2.6 | 0.00 | 0.00 | 0.00 | 74 | 1023.5 |
| 20260905190904 | 74 | 352 | 1.7 | 4.3 | 0.00 | 0.00 | 0.00 | 72 | 1023.6 |
| 20260905190025 | 74 | 335 | 3.5 | 7.0 | 0.00 | 0.00 | 0.00 | 71 | 1023.5 |
| 20260905185426 | 74 | 329 | 3.5 | 7.0 | 0.00 | 0.00 | 0.00 | 71 | 1023.5 |
| 20260905184504 | 74 | 333 | 1.7 | 5.2 | 0.00 | 0.00 | 0.00 | 72 | 1023.3 |
| 20260905183625 | 74 | 328 | 1.7 | 3.5 | 0.00 | 0.00 | 0.00 | 71 | 1023.0 |
| 20260905182704 | 74 | 313 | 0.9 | 2.6 | 0.00 | 0.00 | 0.00 | 71 | 1023.1 |
| 20260905181804 | 75 | 301 | 0.9 | 2.6 | 0.00 | 0.00 | 0.00 | 71 | 1023.2 |
| 20260905180904 | 75 | 271 | 0.9 | 1.7 | 0.00 | 0.00 | 0.00 | 69 | 1022.9 |
| 20260905180005 | 76 | 263 | 0.9 | 2.6 | 0.00 | 0.00 | 0.00 | 69 | 1023.0 |
| 20260905175405 | 76 | 264 | 1.7 | 3.5 | 0.00 | 0.00 | 0.00 | 68 | 1023.0 |
| 20260905174504 | 77 | 244 | 1.7 | 3.5 | 0.00 | 0.00 | 0.00 | 66 | 1022.8 |
| 20260905173604 | 77 | 263 | 2.6 | 5.2 | 0.00 | 0.00 | 0.00 | 64 | 1022.7 |
| 20260905172725 | 78 | 250 | 1.7 | 4.3 | 0.00 | 0.00 | 0.00 | 62 | 1022.7 |
| 20260905171804 | 80 | 256 | 2.6 | 4.3 | 0.00 | 0.00 | 0.00 | 61 | 1022.6 |
| 20260905170904 | 80 | 215 | 1.7 | 4.3 | 0.00 | 0.00 | 0.00 | 60 | 1022.7 |
| 20260905170025 | 82 | 251 | 2.6 | 5.2 | 0.00 | 0.00 | 0.00 | 58 | 1022.7 |
| 20260905165426 | 82 | 241 | 1.7 | 5.2 | 0.00 | 0.00 | 0.00 | 55 | 1022.8 |
| 20260905164504 | 83 | 220 | 1.7 | 5.2 | 0.00 | 0.00 | 0.00 | 47 | 1022.7 |
| 20260905163604 | 83 | 201 | 1.7 | 3.5 | 0.00 | 0.00 | 0.00 | 49 | 1022.6 |
| 20260905162704 | 83 | 196 | 1.7 | 6.1 | 0.00 | 0.00 | 0.00 | 51 | 1022.5 |
| 20260905161804 | 83 | 212 | 2.6 | 6.1 | 0.00 | 0.00 | 0.00 | 47 | 1022.7 |
| 20260905160904 | 83 | 213 | 1.7 | 5.2 | 0.00 | 0.00 | 0.00 | 45 | 1022.7 |
| 20260905160005 | 83 | 224 | 2.6 | 7.8 | 0.00 | 0.00 | 0.00 | 44 | 1022.7 |
| 20260905155404 | 83 | 254 | 2.6 | 7.8 | 0.00 | 0.00 | 0.00 | 43 | 1022.8 |
| 20260905154504 | 83 | 267 | 3.5 | 7.8 | 0.00 | 0.00 | 0.00 | 49 | 1022.9 |
| 20260905153604 | 83 | 292 | 3.5 | 8.7 | 0.00 | 0.00 | 0.00 | 52 | 1022.7 |
| 20260905152704 | 84 | 265 | 3.5 | 8.7 | 0.00 | 0.00 | 0.00 | 51 | 1022.8 |
| 20260905151805 | 85 | 261 | 4.3 | 8.7 | 0.00 | 0.00 | 0.00 | 48 | 1022.7 |
| 20260905150904 | 84 | 261 | 4.3 | 8.7 | 0.00 | 0.00 | 0.00 | 51 | 1022.8 |
| 20260905150025 | 83 | 263 | 4.3 | 8.7 | 0.00 | 0.00 | 0.00 | 48 | 1022.8 |
| 20260905145404 | 83 | 269 | 4.3 | 9.6 | 0.00 | 0.00 | 0.00 | 48 | 1023.0 |
| 20260905144504 | 83 | 263 | 5.2 | 11.3 | 0.00 | 0.00 | 0.00 | 51 | 1023.0 |
| 20260905143604 | 83 | 272 | 4.3 | 11.3 | 0.00 | 0.00 | 0.00 | 51 | 1022.9 |
| 20260905142703 | 84 | 252 | 4.3 | 10.4 | 0.00 | 0.00 | 0.00 | 48 | 1023.1 |
| 20260905141805 | 83 | 277 | 6.1 | 11.3 | 0.00 | 0.00 | 0.00 | 48 | 1023.1 |
| 20260905140904 | 84 | 261 | 5.2 | 12.2 | 0.00 | 0.00 | 0.00 | 49 | 1022.9 |
| 20260905140004 | 84 | 277 | 5.2 | 9.6 | 0.00 | 0.00 | 0.00 | 46 | 1023.1 |
| 20260905135404 | 85 | 267 | 4.3 | 9.6 | 0.00 | 0.00 | 0.00 | 44 | 1023.2 |
| 20260905134504 | 87 | 224 | 2.6 | 7.8 | 0.00 | 0.00 | 0.00 | 41 | 1023.1 |
| 20260905133604 | 85 | 249 | 3.5 | 9.6 | 0.00 | 0.00 | 0.00 | 41 | 1023.3 |
| 20260905132704 | 86 | 254 | 4.3 | 13.0 | 0.00 | 0.00 | 0.00 | 38 | 1023.2 |
| 20260905131804 | 87 | 213 | 3.5 | 7.8 | 0.00 | 0.00 | 0.00 | 37 | 1023.4 |
| 20260905130904 | 86 | 245 | 4.3 | 9.6 | 0.00 | 0.00 | 0.00 | 42 | 1023.1 |
| 20260905130004 | 87 | 241 | 3.5 | 9.6 | 0.00 | 0.00 | 0.00 | 42 | 1023.5 |
| 20260905125404 | 86 | 257 | 3.5 | 11.3 | 0.00 | 0.00 | 0.00 | 42 | 1023.4 |
| 20260905124504 | 86 | 241 | 3.5 | 7.8 | 0.00 | 0.00 | 0.00 | 39 | 1023.3 |
| 20260905123604 | 88 | 254 | 3.5 | 7.8 | 0.00 | 0.00 | 0.00 | 40 | 1023.2 |
| 20260905122704 | 86 | 239 | 2.6 | 10.4 | 0.00 | 0.00 | 0.00 | 39 | 1023.6 |
| 20260905121804 | 86 | 250 | 3.5 | 9.6 | 0.00 | 0.00 | 0.00 | 38 | 1023.5 |
| 20260905120904 | 85 | 262 | 5.2 | 9.6 | 0.00 | 0.00 | 0.00 | 40 | 1023.6 |
| 20260905120004 | 85 | 215 | 4.3 | 7.8 | 0.00 | 0.00 | 0.00 | 41 | 1023.4 |
| 20260905115404 | 86 | 231 | 3.5 | 7.8 | 0.00 | 0.00 | 0.00 | 41 | 1023.6 |
| 20260905114504 | 87 | 205 | 2.6 | 7.8 | 0.00 | 0.00 | 0.00 | 40 | 1023.4 |
| 20260905113604 | 86 | 213 | 3.5 | 8.7 | 0.00 | 0.00 | 0.00 | 41 | 1023.6 |
| 20260905112703 | 86 | 207 | 3.5 | 8.7 | 0.00 | 0.00 | 0.00 | 41 | 1023.3 |
| 20260905111803 | 87 | 224 | 2.6 | 7.0 | 0.00 | 0.00 | 0.00 | 39 | 1023.5 |
| 20260905110903 | 85 | 208 | 4.3 | 10.4 | 0.00 | 0.00 | 0.00 | 41 | 1023.5 |
| 20260905110004 | 86 | 212 | 3.5 | 10.4 | 0.00 | 0.00 | 0.00 | 40 | 1023.4 |
| 20260905105403 | 85 | 182 | 3.5 | 7.8 | 0.00 | 0.00 | 0.00 | 40 | 1023.8 |
| 20260905104504 | 87 | 198 | 3.5 | 6.1 | 0.00 | 0.00 | 0.00 | 39 | 1023.5 |
| 20260905103603 | 85 | 188 | 3.5 | 11.3 | 0.00 | 0.00 | 0.00 | 38 | 1023.5 |
| 20260905102704 | 86 | 193 | 2.6 | 8.7 | 0.00 | 0.00 | 0.00 | 35 | 1023.3 |
| 20260905101804 | 85 | 187 | 4.3 | 10.4 | 0.00 | 0.00 | 0.00 | 33 | 1023.6 |
| 20260905100903 | 85 | 205 | 3.5 | 9.6 | 0.00 | 0.00 | 0.00 | 35 | 1023.6 |
| 20260905100004 | 86 | 172 | 2.6 | 8.7 | 0.00 | 0.00 | 0.00 | 32 | 1023.8 |
| 20260905095403 | 85 | 173 | 4.3 | 10.4 | 0.00 | 0.00 | 0.00 | 33 | 1023.8 |
| 20260905094503 | 85 | 174 | 3.5 | 9.6 | 0.00 | 0.00 | 0.00 | 35 | 1023.7 |
| 20260905093603 | 85 | 173 | 5.2 | 11.3 | 0.00 | 0.00 | 0.00 | 36 | 1023.7 |
| 20260905092725 | 84 | 176 | 5.2 | 11.3 | 0.00 | 0.00 | 0.00 | 38 | 1023.6 |
| 20260905091803 | 85 | 197 | 3.5 | 8.7 | 0.00 | 0.00 | 0.00 | 36 | 1023.7 |
| 20260905090903 | 85 | 205 | 2.6 | 8.7 | 0.00 | 0.00 | 0.00 | 36 | 1023.7 |